Le nostre stazioni meteo in Italia

Pubblicità
Il mio iltempo24.it
Capo Caccia, Italia (16522): Temperatura & dewpoint: 03.04.2020 19:00:00 - 09.04.2020 19:00:00 (CEST)Capo Caccia, Italia (16522): velocità del vento: 03.04.2020 19:00:00 - 09.04.2020 19:00:00 (CEST)Capo Caccia, Italia (16522): direzione del vento: 03.04.2020 19:00:00 - 09.04.2020 19:00:00 (CEST)Capo Caccia, Italia (16522): reduced air pressure: 03.04.2020 19:00:00 - 09.04.2020 19:00:00 (CEST)Capo Caccia, Italia (16522): visibility: 03.04.2020 19:00:00 - 09.04.2020 19:00:00 (CEST)Capo Caccia, Italia (16522): ore di luce: 03.04.2020 19:00:00 - 09.04.2020 19:00:00 (CEST)
Data & Tempo tt [°C] td [°C] ff [km/h] ff [kn] dd ppp [hPa] vv [km] sd [min]
09.04.2020 19:00:00 16,4 11,3 11 6 NO 1021,6 20 60
09.04.2020 18:00:00 16,6 12,2 9 5 NNO 1021,7 20 60
09.04.2020 17:00:00 16,0 13,5 13 7 NNO 1022,0 20 60
09.04.2020 16:00:00 16,2 14,2 18 10 ONO 1022,1 20 60
09.04.2020 15:00:00 17,0 13,5 16 9 ONO 1022,1 20 60
09.04.2020 14:00:00 18,2 8,1 0 0 N 1022,3 20 60
09.04.2020 13:00:00 18,2 8,1 0 0 N 1022,3 20 60
09.04.2020 12:00:00 18,2 7,6 8 4 O 1022,3 20 60
09.04.2020 11:00:00 18,0 4,2 8 4 NNE 1022,3 20 60
09.04.2020 10:00:00 16,0 7,0 0 0 N 1022,2 20 60
09.04.2020 09:00:00 14,4 11,6 4 2 ENE 1022,4 20 60
09.04.2020 08:00:00 13,0 9,0 2 1 E 1022,5 20 6
09.04.2020 07:00:00 13,0 10,6 4 2 NNO 1022,5 20 -
09.04.2020 06:00:00 13,0 10,2 4 2 NNE 1022,5 20 -
09.04.2020 05:00:00 13,0 12,0 4 2 E 1022,5 20 -
09.04.2020 04:00:00 13,0 9,7 5 3 E 1022,7 20 -
09.04.2020 03:00:00 14,2 10,6 5 3 NNO 1023,0 20 -
09.04.2020 02:00:00 14,4 7,5 4 2 ENE 1023,6 20 -
09.04.2020 01:00:00 14,4 7,3 4 2 NE 1023,8 20 -
09.04.2020 00:00:00 14,4 6,5 4 2 NNE 1023,8 20 -
08.04.2020 23:00:00 14,2 7,3 8 4 NO 1023,7 20 -
08.04.2020 22:00:00 14,2 11,3 15 8 NE 1023,6 20 -
08.04.2020 21:00:00 14,8 11,5 16 9 NE 1023,4 20 -
08.04.2020 20:00:00 15,4 12,3 15 8 N 1023,2 20 18
08.04.2020 19:00:00 16,4 11,6 13 7 NNO 1023,1 20 60
08.04.2020 18:00:00 17,4 9,0 18 10 NNO 1023,0 20 60
08.04.2020 17:00:00 17,4 10,3 15 8 N 1023,1 20 60
08.04.2020 16:00:00 17,0 8,7 11 6 NO 1023,8 20 60
08.04.2020 15:00:00 16,4 12,3 15 8 NNO 1024,3 20 60
08.04.2020 14:00:00 16,6 13,1 15 8 NNO 1024,9 20 60
08.04.2020 13:00:00 17,0 10,8 11 6 NO 1025,2 20 60
08.04.2020 12:00:00 18,8 7,5 5 3 NO 1025,5 20 60
08.04.2020 11:00:00 18,0 8,0 5 3 NNO 1025,5 20 60
08.04.2020 10:00:00 16,4 7,9 4 2 NO 1025,4 20 60
08.04.2020 09:00:00 14,8 7,1 5 3 NE 1025,5 20 60
08.04.2020 08:00:00 12,4 8,7 8 4 N 1025,7 20 0
08.04.2020 07:00:00 12,4 10,2 8 4 NE 1025,7 20 -
08.04.2020 06:00:00 12,4 10,8 8 4 E 1025,8 20 -
08.04.2020 05:00:00 12,8 11,6 8 4 ESE 1026,6 20 -
08.04.2020 04:00:00 13,0 12,1 5 3 ESE 1026,6 20 -
08.04.2020 03:00:00 12,8 12,0 9 5 ESE 1026,6 20 -
08.04.2020 02:00:00 13,0 10,2 5 3 E 1026,6 20 -
08.04.2020 01:00:00 13,8 8,4 13 7 NE 1026,5 20 -
08.04.2020 00:00:00 14,0 5,1 9 5 NNE 1026,5 20 -
07.04.2020 23:00:00 14,0 6,9 11 6 NNE 1026,5 20 -
07.04.2020 22:00:00 14,6 8,1 13 7 NE 1026,4 20 -
07.04.2020 21:00:00 15,0 10,1 15 8 NE 1026,2 20 -
07.04.2020 20:00:00 17,0 8,1 9 5 NNE 1026,0 20 30
07.04.2020 19:00:00 17,4 8,3 4 2 NE 1026,0 20 60
07.04.2020 18:00:00 17,6 8,4 13 7 ONO 1026,0 20 60
07.04.2020 17:00:00 17,4 9,0 5 3 NO 1026,0 20 60
07.04.2020 16:00:00 17,4 10,9 9 5 NNO 1026,2 20 60
07.04.2020 15:00:00 18,0 9,9 11 6 SO 1026,2 20 60
07.04.2020 14:00:00 18,0 6,2 9 5 SO 1027,2 20 60
07.04.2020 13:00:00 17,0 6,5 9 5 OSO 1027,2 20 60
07.04.2020 12:00:00 17,0 5,6 9 5 SO 1027,2 20 60
07.04.2020 11:00:00 16,4 9,3 5 3 SSE 1027,3 20 60
07.04.2020 10:00:00 15,0 9,2 9 5 ESE 1026,8 20 60
07.04.2020 09:00:00 13,6 8,3 11 6 E 1025,9 20 30
07.04.2020 08:00:00 11,6 5,2 18 10 NE 1025,7 20 0
07.04.2020 07:00:00 12,0 8,7 16 9 NE 1025,4 10 -
07.04.2020 06:00:00 12,2 10,6 18 10 NNE 1025,4 10 -
07.04.2020 05:00:00 13,0 9,0 16 9 NNE 1025,3 10 -
07.04.2020 04:00:00 13,0 8,7 15 8 NNE 1025,5 10 -
07.04.2020 03:00:00 13,2 9,8 18 10 NE 1025,5 10 -
07.04.2020 02:00:00 13,6 10,2 21 11 NE 1025,5 10 -
07.04.2020 01:00:00 13,6 10,2 21 11 NE 1025,5 10 -
07.04.2020 00:00:00 13,8 7,4 15 8 NNE 1025,6 10 -
06.04.2020 23:00:00 14,8 5,4 13 7 NNE 1024,8 20 -
06.04.2020 22:00:00 15,0 9,4 15 8 NNE 1023,9 20 -
06.04.2020 21:00:00 15,2 8,9 15 8 NNE 1023,7 20 -
06.04.2020 20:00:00 15,4 8,9 16 9 NNE 1023,7 20 30
06.04.2020 19:00:00 17,0 9,2 22 12 N 1023,4 20 60
06.04.2020 18:00:00 17,4 9,0 16 9 NNO 1023,3 20 -
06.04.2020 17:00:00 17,6 12,6 21 11 N 1023,1 20 -
06.04.2020 16:00:00 17,4 8,3 21 11 NNO 1023,1 20 60
06.04.2020 15:00:00 16,0 13,1 13 7 NNE 1023,4 20 60
06.04.2020 14:00:00 16,0 12,6 9 5 N 1023,2 20 60
06.04.2020 13:00:00 17,2 5,2 13 7 N 1023,3 20 60
06.04.2020 12:00:00 17,0 5,0 15 8 N 1023,2 20 60
06.04.2020 11:00:00 16,2 6,6 13 7 NNE 1023,1 20 60
06.04.2020 10:00:00 14,0 7,3 11 6 NNE 1022,4 20 60
06.04.2020 09:00:00 12,8 8,5 11 6 NNE 1022,4 20 0
06.04.2020 08:00:00 11,0 8,4 15 8 ENE 1022,4 20 0
06.04.2020 07:00:00 11,4 9,8 15 8 NE 1021,6 20 -
06.04.2020 06:00:00 11,2 8,7 13 7 NNE 1021,6 20 -
06.04.2020 05:00:00 11,2 6,1 15 8 NNE 1021,6 20 -
06.04.2020 04:00:00 11,4 4,3 13 7 NNE 1021,6 20 -
06.04.2020 03:00:00 11,6 7,8 13 7 NE 1021,6 20 -
06.04.2020 02:00:00 11,6 8,7 15 8 ENE 1021,6 20 -
06.04.2020 01:00:00 11,8 11,2 16 9 NE 1021,6 20 -
06.04.2020 00:00:00 12,0 11,2 15 8 NNE 1021,4 20 -
05.04.2020 23:00:00 12,4 10,8 15 8 NE 1021,4 20 -
05.04.2020 22:00:00 13,2 8,9 26 14 NE 1020,5 20 -
05.04.2020 21:00:00 13,2 7,9 31 17 NNE 1019,6 20 -
05.04.2020 20:00:00 14,0 2,3 31 17 NE 1019,3 20 48
05.04.2020 19:00:00 16,0 2,1 39 21 NE 1018,9 20 60
05.04.2020 18:00:00 17,4 2,6 34 18 NNE 1018,8 20 60
05.04.2020 17:00:00 19,2 1,7 29 16 NNE 1018,7 20 60
05.04.2020 16:00:00 20,0 1,4 26 14 NNE 1018,8 20 60
05.04.2020 15:00:00 20,0 1,4 26 14 NE 1019,2 20 60
05.04.2020 14:00:00 20,0 1,4 24 13 NNE 1019,8 20 60
05.04.2020 13:00:00 19,2 2,2 29 16 NE 1020,2 20 60
05.04.2020 12:00:00 18,4 1,8 34 18 NNE 1020,5 20 60
05.04.2020 11:00:00 16,4 3,1 24 13 NE 1021,0 20 60
05.04.2020 10:00:00 14,6 3,1 21 11 NE 1021,2 20 60
05.04.2020 09:00:00 13,6 3,3 16 9 NE 1021,3 20 60
05.04.2020 08:00:00 12,0 5,4 13 7 NE 1020,8 20 0
05.04.2020 07:00:00 11,2 5,4 15 8 NE 1020,6 20 0
05.04.2020 06:00:00 11,2 6,0 18 10 NE 1020,6 20 -
05.04.2020 05:00:00 11,2 7,3 16 9 NNE 1020,7 20 -
05.04.2020 04:00:00 11,2 6,9 15 8 NNE 1020,8 20 -
05.04.2020 03:00:00 - - - - - - - -
05.04.2020 02:00:00 - - - - - - - -
05.04.2020 01:00:00 - - - - - - - -
05.04.2020 00:00:00 12,2 9,2 9 5 NE 1020,6 20 -
04.04.2020 23:00:00 12,4 11,6 15 8 NE 1020,6 20 -
04.04.2020 22:00:00 12,4 12,1 13 7 NNE 1020,6 20 -
04.04.2020 21:00:00 13,4 12,6 18 10 N 1019,6 20 -
04.04.2020 20:00:00 14,0 11,6 24 13 N 1018,7 20 0
04.04.2020 19:00:00 15,0 9,2 21 11 N 1018,3 20 30
04.04.2020 18:00:00 16,0 12,2 21 11 NNO 1018,1 20 60
04.04.2020 17:00:00 16,0 11,8 24 13 NNO 1018,1 20 60
04.04.2020 16:00:00 16,2 11,8 18 10 NNO 1018,2 20 60
04.04.2020 15:00:00 18,6 2,8 26 14 NNE 1018,3 20 60
04.04.2020 14:00:00 18,4 2,7 28 15 NNE 1018,5 20 60
04.04.2020 13:00:00 16,4 7,9 16 9 N 1019,0 20 60
04.04.2020 12:00:00 15,0 11,2 11 6 N 1019,0 20 60
04.04.2020 11:00:00 14,6 10,2 8 4 NNE 1018,6 20 60
04.04.2020 10:00:00 12,8 9,8 9 5 NE 1018,4 20 60
04.04.2020 09:00:00 12,2 10,1 11 6 N 1017,5 20 60
04.04.2020 08:00:00 10,6 9,4 16 9 N 1017,4 20 0
04.04.2020 07:00:00 10,0 9,3 15 8 N 1016,8 20 -
04.04.2020 06:00:00 10,0 8,4 0 0 NNE 1016,4 20 -
04.04.2020 05:00:00 10,4 9,3 15 8 NNE 1015,9 20 -
04.04.2020 04:00:00 11,0 9,0 9 5 NNE 1015,8 20 -
04.04.2020 03:00:00 10,0 8,3 15 8 N 1015,8 20 -
04.04.2020 02:00:00 10,0 7,6 11 6 NNO 1015,6 20 -
04.04.2020 01:00:00 10,0 7,6 21 11 N 1015,6 20 -
04.04.2020 00:00:00 10,0 7,6 18 10 N 1015,4 20 -
03.04.2020 23:00:00 10,4 7,8 18 10 N 1014,6 20 -
03.04.2020 22:00:00 10,4 8,0 16 9 N 1014,5 20 -
03.04.2020 21:00:00 10,6 7,9 18 10 NNE 1013,7 20 -
03.04.2020 20:00:00 11,0 7,3 18 10 N 1013,2 20 18
03.04.2020 19:00:00 11,4 6,8 24 13 N 1012,5 20 60

tt = Temperatura
td = dewpoint
ff = velocità del vento
dd = direzione del vento
ppp = reduced air pressure
vv = visibility
sd = ore di luce

Stazioni seguenti

WeatherPro
AMSI
MeteoEarth